Regional Weather Roundup
Issued by NWS

Home | Current Version | Previous Version | Text Only | Print | Product List | Glossary On
Versions: 1 2 3 4 5 6 7 8 9 10 11 12 13 14 15 16 17 18 19 20 21 22 23 24 25 26 27 28 29 30 31 32 33 34 35 36 37 38 39 40 41 42 43 44 45 46 47 48 49 50
000
ASUS45 KBOI 221110
RWRID

IDAHO REGIONAL WEATHER ROUNDUP
NATIONAL WEATHER SERVICE BOISE ID
400 AM MST SUN JAN 22 2017

NOTE: "FAIR" INDICATES FEW OR NO CLOUDS BELOW 12000 FEET
WITH NO SIGNIFICANT WEATHER AND/OR OBSTRUCTIONS TO VISIBILITY

IDZ012-014-221200-
SOUTHWEST IDAHO


CITY           SKY/WX    TMP DP  RH WIND       PRES   REMARKS
BOISE          PTCLDY    34  27  75 E14       29.78F WCI  25
CALDWELL       PTCLDY    33  27  78 SE12      29.79F WCI  24
MOUNTAIN HOME  PTCLDY    30  30 100 E17       29.81F WCI  18
$$

IDZ016-017-221200-
SOUTHCENTRAL IDAHO


CITY           SKY/WX    TMP DP  RH WIND       PRES   REMARKS
BURLEY         CLOUDY    33  23  66 S13       29.86F WCI  24
JEROME         MOCLDY    29  22  75 NE15      29.86F WCI  18
TWIN FALLS     PTCLDY    33  19  56 S20       29.83F WCI  21
$$

IDZ019>023-221200-
SOUTHEAST IDAHO


CITY           SKY/WX    TMP DP  RH WIND       PRES   REMARKS
IDAHO FALLS    CLOUDY    23  22  96 CALM      29.91F
POCATELLO      CLOUDY    33  23  66 S10       29.91S WCI  25
REXBURG        CLOUDY    20  18  92 NE3       29.91S
$$

IDZ006-010-011-018-031-032-221200-
CENTRAL IDAHO MOUNTAINS


CITY           SKY/WX    TMP DP  RH WIND       PRES   REMARKS
MCCALL         FLURRIES  28  25  88 CALM      29.73F
HAILEY         CLOUDY    23  21  93 CALM      29.88S
STANLEY          N/A     17  14  88 CALM      29.79S
SALMON         CLOUDY    12  10  92 CALM      29.89R
CHALLIS        CLOUDY    12  11  95 E3        29.85S
$$

IDZ002-004-006-007-026-221200-
NORTHERN IDAHO


CITY           SKY/WX    TMP DP  RH WIND       PRES   REMARKS
LEWISTON       MOCLDY    36  30  79 SE6       29.77S WCI  31
LOWELL           N/A     32  30  92 CALM      29.85S
COEUR D`ALENE  CLOUDY    32  31  96 CALM      29.75S
MULLAN PASS    FOG       25  23  92 VRB6      29.68S VSB 3/4 WCI  18
$$



USA.gov is the U.S. government's official web portal to all federal, state and local government web resources and services.